Voltar ao catálogo

STARLINK-37312

AtivoComunicaçõesSSO
NORAD 68676·PAYLOAD·🇺🇸 United States

Lançado Apr 11, 2026 de Vandenberg Space Force Base

Loading…

Próximas Passagens (próximas 24 horas)

TLE

AtualizadoSource: CelesTrak SupGP

Época: Sep 15, 2026, 03:36 UTC

1 68676C 26077Q   26258.15048611  .00008284  00000+0  25707-3 0  2587
2 68676  97.2847 128.1593 0001874  94.2739 337.4307 15.33445021    11

Acompanhe STARLINK-37312 em tempo real com AllMySat

Download on the App Store